[[{"header":{"parameterUnit":"m.s-1","parameterCategory":1,"la1":30.2991,"la2":30.254,"lo1":-89.0895,"lo2":-89.0444,"dy":0.0017,"dx":0.0017,"nx":28,"ny":28,"refTime":"2025-08-14T21:00:00:Z","depth":0,"parameterNumber":2,"parameterNumberName":"U-component_of_WINDS"},"data":[0,0,0,0,0,0,0,0,0,0,0,0,0,0,0,0,0,0,0,0,0,0,0,0,0,0,0,0,0,0,0,0,0,0,0,0,0,0,0,0,0,0,0,0,0,0,0,0,0,0,0,0,0,0,0,0,0,0,1.3498,1.3499,0,1.3594,1.3595,1.3597,1.3599,1.3597,1.3596,1.3595,1.3697,1.3701,1.3705,0,0,0,0,0,0,0,0,0,0,0,0,0,1.3317,1.3321,1.3498,1.3499,1.35,1.3594,1.3595,1.3597,1.3599,1.3597,1.3596,1.3594,1.3696,1.37,1.3705,0,0,0,0,0,0,0,0,0,0,0,0,0,1.3403,1.3322,1.3497,1.3512,1.3515,1.3594,1.3596,1.3597,1.3599,1.3597,1.3595,1.3594,1.3694,1.37,1.3706,1.3777,0,0,1.3723,1.3726,0,0,0,0,0,0,0,0,1.3398,1.341,1.3509,1.3511,1.3514,1.3582,1.3569,1.3658,1.36,1.3567,1.3595,1.3593,1.3661,1.3669,1.3691,1.3782,1.3786,1.3724,1.3727,1.373,1.3731,0,0,0,0,0,0,0,1.3392,1.3405,1.3536,1.351,1.3514,1.3515,1.3525,1.3586,1.3623,1.357,1.357,1.3581,1.3662,1.3686,1.3694,1.3788,1.3723,1.3729,1.3732,1.3734,1.3942,1.3944,0,0,0,0,0,0,1.3383,1.34,1.3533,1.3539,1.345,1.352,1.3531,1.3562,1.3622,1.363,1.3583,1.3581,1.3677,1.3687,1.3697,1.3785,1.373,1.3735,1.3738,1.394,1.3943,1.3945,0,0,0,0,0,0,1.3379,1.3395,1.3529,1.347,1.3487,1.3525,1.356,1.3565,1.3589,1.3632,1.3639,1.36,1.3676,1.3689,1.3757,1.3788,1.3738,1.3743,1.3938,1.3941,1.3944,1.3961,0,0,0,0,0,0,1.3374,1.3393,1.342,1.347,1.349,1.3587,1.3562,1.3568,1.3599,1.3597,1.365,1.3657,1.3675,1.3748,1.3763,1.3795,1.3747,1.3935,1.3939,1.3943,1.3958,1.3964,1.397,0,0,0,0,0,1.3367,1.3422,1.3422,1.3438,1.3525,1.3588,1.36,1.3618,1.3601,1.3629,1.3657,1.3656,1.3782,1.3755,1.3772,1.3806,1.3933,1.3938,1.3942,1.3955,1.3963,1.397,0,0,0,0,0,0,1.3376,1.3429,1.3429,1.3502,1.354,1.3589,1.3624,1.3626,1.3671,1.3668,1.369,1.3702,1.377,1.3795,1.3764,1.3879,1.3856,1.3864,1.386,1.3868,1.3874,1.3866,1.3752,0,0,0,0,0,1.3386,1.3433,1.3477,1.3537,1.3556,1.3587,1.3615,1.3626,1.3667,1.3684,1.3717,1.3758,1.3807,1.3839,1.3886,1.3961,1.3973,1.3993,1.3999,1.4004,1.4011,1.4052,1.4062,1.396,1.396,1.396,0,0,1.3408,1.3443,1.3471,1.3539,1.357,1.3619,1.3601,1.3653,1.3689,1.3692,1.3758,1.3783,1.3831,1.3902,1.3935,1.3925,1.4041,1.401,1.4013,1.4018,1.4058,1.4067,1.4076,1.3963,1.3963,1.3962,0,0,1.3473,1.3504,1.3556,1.3588,1.3635,1.3655,1.3668,1.3715,1.3732,1.3798,1.3802,1.3845,1.3929,1.3963,1.3991,1.4067,1.4068,1.4082,1.4113,1.4153,1.4161,1.4169,1.4196,1.4205,1.4088,1.4088,1.4089,0,1.3494,1.3566,1.3584,1.3635,1.3665,1.3669,1.3723,1.3753,1.3814,1.3835,1.3822,1.3927,1.3959,1.4039,1.4057,1.408,1.4095,1.4076,1.4159,1.4166,1.4173,1.4199,1.4209,1.409,1.409,1.409,1.4089,0,1.3591,1.364,1.3678,1.3735,1.3769,1.3821,1.3847,1.388,1.3887,1.3909,1.3976,1.4014,1.407,1.4089,1.4098,1.417,1.4162,1.4154,1.4131,1.4184,1.4209,1.4219,1.4092,1.4091,1.4091,1.4091,0,0,1.3664,1.3729,1.3743,1.3768,1.382,1.3859,1.3912,1.3965,1.3992,1.4034,1.4079,1.415,1.4142,1.4174,1.4186,1.4221,1.4279,1.4209,1.421,1.422,1.436,1.4366,1.4378,1.4279,1.4281,1.4283,1.4356,0,1.3734,1.3827,1.3844,1.3925,1.3972,1.3976,1.4022,1.4059,1.408,1.4123,1.4147,1.4197,1.4183,1.4202,1.4237,1.4264,1.4307,1.4259,1.4322,1.4324,1.431,1.4391,1.4397,1.4465,1.4366,1.4368,1.4369,0,1.3829,1.3871,1.3957,1.4002,1.4022,1.4063,1.4112,1.4153,1.4195,1.4208,1.4243,1.4251,1.4307,1.4281,1.4358,1.4325,1.4352,1.4369,1.4372,1.4379,1.435,1.44,1.4487,1.4497,1.4385,1.4383,1.4382,0,1.3873,1.3952,1.4014,1.4035,1.409,1.4118,1.4142,1.4182,1.4213,1.4256,1.4276,1.4326,1.4354,1.4392,1.4414,1.4393,1.4489,1.4466,1.4502,1.4502,1.4523,1.4521,1.4615,1.4539,1.4539,1.4539,1.4539,0,1.395,1.4002,1.4034,1.4072,1.4131,1.415,1.4208,1.4231,1.4267,1.431,1.4317,1.4357,1.4383,1.4427,1.4444,1.4505,1.4518,1.453,1.4534,1.453,1.4528,1.4548,1.4544,1.4542,1.4541,1.4541,1.454,0,1.401,1.4034,1.4101,1.4146,1.4159,1.42,1.4239,1.4276,1.4297,1.4351,1.4365,1.4398,1.445,1.4475,1.4541,1.4552,1.4622,1.4622,1.4607,1.4609,1.4644,1.464,1.4754,1.477,1.4683,1.4684,1.4685,0,1.4058,1.4098,1.4147,1.4176,1.42,1.4246,1.4277,1.4297,1.4329,1.4379,1.4411,1.4463,1.4506,1.4589,1.462,1.4669,1.4672,1.4708,1.4679,1.4673,1.4673,1.467,1.4674,1.4714,1.4714,1.4715,1.4716,0,1.414,1.4149,1.4192,1.424,1.4276,1.4315,1.4353,1.4376,1.4402,1.4438,1.4491,1.4524,1.459,1.4642,1.4693,1.4719,1.4722,1.4724,1.4735,1.4732,1.4721,1.4727,1.4621,1.4722,1.4721,1.4721,1.472,1.472,1.4195,1.4231,1.4271,1.4319,1.4349,1.4385,1.4421,1.4446,1.449,1.4545,1.4554,1.461,1.4651,1.4721,1.4748,1.4793,1.4784,1.4801,1.4805,1.4809,1.481,1.4713,1.4802,1.4802,1.4802,1.4802,1.4802,0,1.4278,1.4303,1.4347,1.4399,1.4437,1.4435,1.4477,1.4509,1.4558,1.4596,1.4637,1.4698,1.4748,1.4782,1.4833,1.4862,1.4865,1.4875,1.4874,1.4879,1.4815,1.48,1.4872,1.4872,1.4872,1.4872,1.4872,1.4872,1.4325,1.4385,1.4399,1.4474,1.45,1.4554,1.4578,1.4611,1.464,1.4707,1.4749,1.477,1.4806,1.486,1.4906,1.4915,1.4933,1.4944,1.4952,1.4891,1.4884,1.4877,1.4863,1.4947,1.4947,1.5013,1.5014,1.5014]},{"header":{"parameterUnit":"m.s-1","parameterCategory":1,"la1":30.2991,"la2":30.254,"lo1":-89.0895,"lo2":-89.0444,"dy":0.0017,"dx":0.0017,"nx":28,"ny":28,"refTime":"2025-08-14T21:00:00:Z","depth":0,"parameterNumber":3,"parameterNumberName":"V-component_of_WINDS"},"data":[0,0,0,0,0,0,0,0,0,0,0,0,0,0,0,0,0,0,0,0,0,0,0,0,0,0,0,0,0,0,0,0,0,0,0,0,0,0,0,0,0,0,0,0,0,0,0,0,0,0,0,0,0,0,0,0,0,0,2.9386,2.9386,0,2.9322,2.9321,2.932,2.9243,2.9242,2.9241,2.924,2.917,2.9169,2.9168,0,0,0,0,0,0,0,0,0,0,0,0,0,2.9441,2.944,2.9386,2.9386,2.9385,2.9322,2.9321,2.932,2.9243,2.9242,2.924,2.9239,2.917,2.9169,2.9168,0,0,0,0,0,0,0,0,0,0,0,0,0,2.9401,2.944,2.9386,2.9339,2.9334,2.9322,2.9321,2.932,2.9243,2.9242,2.924,2.9238,2.917,2.9169,2.9168,2.9196,0,0,2.9164,2.9164,0,0,0,0,0,0,0,0,2.9403,2.9399,2.9347,2.9342,2.9337,2.9289,2.9314,2.9278,2.9244,2.9278,2.9239,2.9237,2.921,2.9206,2.9197,2.9193,2.919,2.9164,2.9164,2.9163,2.9163,0,0,0,0,0,0,0,2.9406,2.9401,2.9361,2.9346,2.934,2.932,2.9312,2.9307,2.9255,2.9275,2.9269,2.9263,2.9207,2.9199,2.9195,2.9189,2.9164,2.9163,2.9163,2.9162,2.9203,2.9205,0,0,0,0,0,0,2.9416,2.9404,2.9363,2.9359,2.9366,2.932,2.9312,2.9306,2.9255,2.9245,2.9264,2.9259,2.9202,2.9197,2.9192,2.9221,2.9163,2.9162,2.9161,2.9201,2.9203,2.9205,0,0,0,0,0,0,2.9418,2.9413,2.9365,2.938,2.9372,2.9321,2.9315,2.9305,2.9297,2.9247,2.9236,2.9265,2.92,2.9194,2.9196,2.9218,2.9162,2.9161,2.9199,2.9202,2.9204,2.928,0,0,0,0,0,0,2.9419,2.9414,2.9425,2.9381,2.9372,2.9371,2.9317,2.9305,2.9295,2.9288,2.9245,2.9236,2.9198,2.9198,2.9195,2.9215,2.916,2.9197,2.92,2.9204,2.9275,2.9285,2.9293,0,0,0,0,0,2.9422,2.9448,2.9426,2.9422,2.9384,2.9372,2.9367,2.9324,2.9298,2.9308,2.9275,2.9237,2.9216,2.9199,2.9194,2.9215,2.9195,2.9199,2.9203,2.9271,2.9283,2.9293,0,0,0,0,0,0,2.9496,2.9442,2.9416,2.943,2.9406,2.9359,2.9371,2.9338,2.9321,2.9315,2.9261,2.9252,2.926,2.9237,2.9219,2.9239,2.92,2.9204,2.9253,2.9264,2.9273,2.9278,2.9159,0,0,0,0,0,2.9514,2.951,2.9462,2.9478,2.9468,2.9422,2.9415,2.9384,2.9357,2.9347,2.9314,2.9289,2.9276,2.9269,2.9255,2.9272,2.9261,2.9284,2.9293,2.9301,2.9304,2.931,2.932,2.9218,2.9218,2.9218,0,0,2.955,2.952,2.9521,2.9493,2.9471,2.9467,2.9414,2.9412,2.9408,2.9346,2.9346,2.9321,2.9289,2.9299,2.9301,2.928,2.9329,2.9306,2.9312,2.9311,2.9315,2.9325,2.9333,2.9221,2.9221,2.922,0,0,2.9615,2.9593,2.9603,2.9583,2.9552,2.9521,2.9523,2.9482,2.9463,2.9463,2.9416,2.941,2.939,2.9369,2.9355,2.9413,2.9377,2.941,2.9456,2.9463,2.9471,2.9478,2.9497,2.9505,2.9413,2.9413,2.9414,0,2.9665,2.9658,2.9613,2.9614,2.9602,2.9548,2.9557,2.9539,2.9504,2.9497,2.9475,2.9448,2.9423,2.9426,2.944,2.9432,2.9432,2.9414,2.9474,2.948,2.9486,2.9503,2.9511,2.9418,2.9417,2.9417,2.9416,0,2.9719,2.9715,2.9728,2.9696,2.9686,2.9692,2.9647,2.9642,2.9612,2.9583,2.9583,2.9551,2.9529,2.9527,2.9498,2.9527,2.9514,2.9484,2.9443,2.95,2.9516,2.9523,2.9423,2.9422,2.9421,2.942,0,0,2.9828,2.9773,2.9778,2.9763,2.9724,2.9719,2.9722,2.9702,2.9698,2.9676,2.9676,2.9661,2.9632,2.9617,2.9584,2.9591,2.9637,2.9559,2.9557,2.9574,2.9666,2.9689,2.9698,2.9614,2.9615,2.9616,2.9668,0,2.9884,2.9887,2.9847,2.986,2.9855,2.9803,2.9805,2.9782,2.9755,2.9746,2.9716,2.9705,2.9669,2.9659,2.9663,2.9631,2.9655,2.9627,2.9612,2.9612,2.9621,2.9706,2.973,2.9781,2.9674,2.9675,2.9676,0,2.9951,2.9934,2.9947,2.9908,2.9904,2.9907,2.9885,2.9878,2.9849,2.9829,2.9813,2.9776,2.9775,2.9738,2.9734,2.9716,2.9707,2.9691,2.9691,2.9687,2.9647,2.9703,2.9796,2.9804,2.9686,2.9685,2.9684,0,3.0028,3.0008,3.0013,3.0002,2.9956,2.9959,2.994,2.991,2.9901,2.9881,2.9874,2.9855,2.9844,2.9829,2.9787,2.9764,2.9788,2.9748,2.977,2.9771,2.9777,2.9777,2.9869,2.9773,2.9773,2.9773,2.9773,0,3.0095,3.0104,3.0047,3.005,3.0059,3.0013,3.0022,2.9998,2.9972,2.9968,2.9922,2.9919,2.9866,2.9856,2.9824,2.9825,2.9821,2.9804,2.9795,2.9807,2.9809,2.98,2.9795,2.9775,2.9775,2.9774,2.9774,0,3.0181,3.0143,3.0145,3.0103,3.0092,3.0101,3.0063,3.0064,3.0035,3.0031,3.0027,2.9981,2.9968,2.9925,2.9901,2.9879,2.989,2.9874,2.9901,2.9895,2.9919,2.9917,3.0007,3.0016,2.9917,2.9918,2.9919,0,3.0226,3.0232,3.0191,3.0186,3.0169,3.0162,3.0152,3.0107,3.0098,3.0067,3.0071,3.0054,3.0039,3.002,2.9983,2.9964,2.9947,2.998,2.9943,2.9956,2.9946,2.9946,2.9945,2.9987,2.9988,2.9989,2.999,0,3.0309,3.029,3.0279,3.0261,3.0251,3.0234,3.0215,3.0213,3.0162,3.0155,3.0142,3.013,3.0106,3.009,3.0066,3.0044,3.0008,3.0002,3.0006,3.0019,3.0033,3.0025,2.9921,3.0,2.9999,2.9998,2.9998,2.9998,3.0375,3.0378,3.035,3.0338,3.0319,3.0303,3.0301,3.0272,3.0261,3.0239,3.0213,3.0203,3.0173,3.0137,3.0118,3.0108,3.0089,3.0095,3.0097,3.0099,3.0104,3.0036,3.0104,3.0104,3.0103,3.0103,3.0103,0,3.0455,3.0434,3.0425,3.04,3.0391,3.036,3.0337,3.0331,3.0323,3.0299,3.0285,3.027,3.0254,3.0217,3.0197,3.0196,3.0179,3.0193,3.0192,3.0187,3.0123,3.0121,3.0207,3.0207,3.0207,3.0207,3.0207,3.0207,3.0495,3.0499,3.0477,3.047,3.0449,3.044,3.043,3.0413,3.0394,3.038,3.0367,3.0343,3.0313,3.0291,3.0275,3.0264,3.0259,3.0277,3.0261,3.0202,3.0192,3.0182,3.018,3.0276,3.0277,3.0325,3.0326,3.0326]}]]